Time,TemperatureF,DewpointF,PressureIn,WindDirection,WindDirectionDegrees,WindSpeedMPH,WindSpeedGustMPH,Humidity,HourlyPrecipIn,Conditions,Clouds,dailyrainin,SoftwareType,DateUTC
2013-03-23 00:00:00,30.8,24.7,30.08,ENE,74,2.7,4.6,78,0.00,,,0.00,WeatherDisplay:10.37,2013-03-23 05:00:00,
2013-03-23 00:05:00,30.8,24.7,30.08,ENE,70,3.4,3.5,78,0.00,,,0.00,WeatherDisplay:10.37,2013-03-23 05:05:00,
2013-03-23 00:10:00,30.7,24.7,30.08,ENE,61,3.5,4.6,78,0.00,,,0.00,WeatherDisplay:10.37,2013-03-23 05:10:00,
2013-03-23 00:15:00,30.7,24.7,30.08,East,88,2.6,3.5,78,0.00,,,0.00,WeatherDisplay:10.37,2013-03-23 05:15:00,
2013-03-23 00:21:00,30.7,25.0,30.08,ENE,58,2.4,3.5,79,0.00,,,0.00,WeatherDisplay:10.37,2013-03-23 05:21:00,
2013-03-23 00:26:00,30.6,24.6,30.08,NE,44,1.7,3.5,78,0.00,,,0.00,WeatherDisplay:10.37,2013-03-23 05:26:00,
2013-03-23 00:31:00,30.7,24.7,30.08,NNE,32,2.1,3.5,78,0.00,,,0.00,WeatherDisplay:10.37,2013-03-23 05:31:00,
2013-03-23 00:36:00,30.6,24.6,30.08,ENE,60,2.5,4.6,78,0.00,,,0.00,WeatherDisplay:10.37,2013-03-23 05:36:00,
2013-03-23 00:41:00,30.6,24.6,30.09,ENE,60,2.9,4.6,78,0.00,,,0.00,WeatherDisplay:10.37,2013-03-23 05:41:00,
2013-03-23 00:46:00,30.6,24.9,30.09,ENE,69,1.4,2.3,79,0.00,,,0.00,WeatherDisplay:10.37,2013-03-23 05:46:00,
2013-03-23 00:51:00,30.6,24.9,30.09,NE,49,0.0,0.0,79,0.00,,,0.00,WeatherDisplay:10.37,2013-03-23 05:51:00,
2013-03-23 00:56:00,30.5,25.1,30.09,NE,49,0.0,0.0,80,0.00,,,0.00,WeatherDisplay:10.37,2013-03-23 05:56:00,
2013-03-23 01:01:00,30.5,25.1,30.09,NE,55,0.6,2.3,80,0.00,,,0.00,WeatherDisplay:10.37,2013-03-23 06:01:00,
2013-03-23 01:06:00,30.5,25.1,30.09,NE,55,0.7,1.1,80,0.00,,,0.00,WeatherDisplay:10.37,2013-03-23 06:06:00,
2013-03-23 01:11:00,30.5,25.1,30.09,East,80,0.1,1.1,80,0.00,,,0.00,WeatherDisplay:10.37,2013-03-23 06:11:00,
2013-03-23 01:17:00,30.5,25.1,30.09,ENE,77,0.0,0.0,80,0.00,,,0.00,WeatherDisplay:10.37,2013-03-23 06:17:00,
2013-03-23 01:22:00,30.5,25.1,30.09,ENE,77,0.0,0.0,80,0.00,,,0.00,WeatherDisplay:10.37,2013-03-23 06:22:00,
2013-03-23 01:28:00,30.4,24.7,30.09,ENE,77,0.0,0.0,79,0.00,,,0.00,WeatherDisplay:10.37,2013-03-23 06:28:00,
2013-03-23 01:33:00,30.4,24.7,30.09,ENE,58,0.4,1.1,79,0.00,,,0.00,WeatherDisplay:10.37,2013-03-23 06:33:00,
2013-03-23 01:38:00,30.5,25.1,30.09,ENE,63,0.0,0.0,80,0.00,,,0.00,WeatherDisplay:10.37,2013-03-23 06:38:00,
2013-03-23 01:43:00,30.5,25.4,30.09,ENE,63,0.0,0.0,81,0.00,,,0.00,WeatherDisplay:10.37,2013-03-23 06:43:00,
2013-03-23 01:48:00,30.4,25.3,30.09,ENE,62,0.1,1.1,81,0.00,,,0.00,WeatherDisplay:10.37,2013-03-23 06:48:00,
2013-03-23 01:53:00,30.5,25.4,30.09,ENE,62,0.0,1.1,81,0.00,,,0.00,WeatherDisplay:10.37,2013-03-23 06:53:00,
2013-03-23 01:58:00,30.4,25.6,30.09,ENE,63,0.0,0.0,82,0.00,,,0.00,WeatherDisplay:10.37,2013-03-23 06:58:00,
2013-03-23 02:03:00,30.4,25.3,30.09,ENE,64,0.0,0.0,81,0.00,,,0.00,WeatherDisplay:10.37,2013-03-23 07:03:00,
2013-03-23 02:08:00,30.4,25.6,30.09,ENE,64,0.1,1.1,82,0.00,,,0.00,WeatherDisplay:10.37,2013-03-23 07:08:00,
2013-03-23 02:13:00,30.4,25.6,30.09,ENE,66,0.0,0.0,82,0.00,,,0.00,WeatherDisplay:10.37,2013-03-23 07:13:00,
2013-03-23 02:18:00,30.3,25.2,30.09,ENE,66,0.0,0.0,81,0.00,,,0.00,WeatherDisplay:10.37,2013-03-23 07:18:00,
2013-03-23 02:23:00,30.3,25.5,30.09,ENE,66,0.0,0.0,82,0.00,,,0.00,WeatherDisplay:10.37,2013-03-23 07:23:00,
2013-03-23 02:28:00,30.2,25.4,30.09,ENE,67,0.0,0.0,82,0.00,,,0.00,WeatherDisplay:10.37,2013-03-23 07:28:00,
2013-03-23 02:33:00,30.2,25.1,30.09,ENE,66,0.0,0.0,81,0.00,,,0.00,WeatherDisplay:10.37,2013-03-23 07:33:00,
2013-03-23 02:39:00,30.2,24.8,30.09,ENE,66,0.0,0.0,80,0.00,,,0.00,WeatherDisplay:10.37,2013-03-23 07:39:00,
2013-03-23 02:44:00,30.2,24.8,30.08,ENE,67,0.2,1.1,80,0.00,,,0.00,WeatherDisplay:10.37,2013-03-23 07:44:00,
2013-03-23 02:49:00,30.2,25.4,30.08,ENE,67,0.8,1.1,82,0.00,,,0.00,WeatherDisplay:10.37,2013-03-23 07:49:00,
2013-03-23 02:54:00,30.2,25.1,30.07,NE,47,0.3,3.5,81,0.00,,,0.00,WeatherDisplay:10.37,2013-03-23 07:54:00,
2013-03-23 02:59:00,30.2,25.1,30.08,NE,47,0.0,0.0,81,0.00,,,0.00,WeatherDisplay:10.37,2013-03-23 07:59:00,
2013-03-23 03:04:00,30.2,25.1,30.08,NE,55,0.0,0.0,81,0.00,,,0.00,WeatherDisplay:10.37,2013-03-23 08:04:00,
2013-03-23 03:09:00,30.2,25.1,30.08,NE,55,0.0,0.0,81,0.00,,,0.00,WeatherDisplay:10.37,2013-03-23 08:09:00,
2013-03-23 03:14:00,30.2,25.4,30.07,ENE,70,0.0,0.0,82,0.00,,,0.00,WeatherDisplay:10.37,2013-03-23 08:14:00,
2013-03-23 03:19:00,30.1,25.3,30.07,ENE,70,0.0,0.0,82,0.00,,,0.00,WeatherDisplay:10.37,2013-03-23 08:19:00,
2013-03-23 03:24:00,29.9,24.8,30.08,ENE,70,0.0,0.0,81,0.00,,,0.00,WeatherDisplay:10.37,2013-03-23 08:24:00,
2013-03-23 03:29:00,29.8,25.0,30.07,ENE,70,0.0,1.0,82,0.00,,,0.00,WeatherDisplay:10.37,2013-03-23 08:29:00,
2013-03-23 03:34:00,29.8,24.7,30.07,ENE,59,0.3,1.1,81,0.00,,,0.00,WeatherDisplay:10.37,2013-03-23 08:34:00,
2013-03-23 03:39:00,29.8,25.0,30.07,ENE,68,0.1,1.1,82,0.00,,,0.00,WeatherDisplay:10.37,2013-03-23 08:39:00,
2013-03-23 03:44:00,29.7,25.2,30.07,ENE,64,0.0,0.0,83,0.00,,,0.00,WeatherDisplay:10.37,2013-03-23 08:44:00,
2013-03-23 03:49:00,29.7,24.9,30.07,ENE,67,0.0,1.1,82,0.00,,,0.00,WeatherDisplay:10.37,2013-03-23 08:49:00,
2013-03-23 03:54:00,29.8,24.7,30.07,ENE,64,0.0,0.0,81,0.00,,,0.00,WeatherDisplay:10.37,2013-03-23 08:54:00,
2013-03-23 03:59:00,29.7,24.6,30.08,ENE,64,0.0,0.0,81,0.00,,,0.00,WeatherDisplay:10.37,2013-03-23 08:59:00,
2013-03-23 04:04:00,29.6,24.8,30.08,ENE,64,0.0,0.0,82,0.00,,,0.00,WeatherDisplay:10.37,2013-03-23 09:04:00,
2013-03-23 04:09:00,29.5,25.0,30.08,ENE,64,0.0,0.0,83,0.00,,,0.00,WeatherDisplay:10.37,2013-03-23 09:09:00,
2013-03-23 04:14:00,29.4,25.2,30.08,ENE,64,0.0,0.0,84,0.00,,,0.00,WeatherDisplay:10.37,2013-03-23 09:14:00,
2013-03-23 04:19:00,29.2,25.0,30.08,ENE,64,0.0,0.0,84,0.00,,,0.00,WeatherDisplay:10.37,2013-03-23 09:19:00,
2013-03-23 04:24:00,29.0,24.5,30.07,ENE,64,0.0,0.0,83,0.00,,,0.00,WeatherDisplay:10.37,2013-03-23 09:24:00,
2013-03-23 04:29:00,28.9,25.0,30.08,ENE,64,0.0,0.0,85,0.00,,,0.00,WeatherDisplay:10.37,2013-03-23 09:29:00,
2013-03-23 04:34:00,28.5,24.8,30.08,ENE,64,0.0,0.0,86,0.00,,,0.00,WeatherDisplay:10.37,2013-03-23 09:34:00,
2013-03-23 04:39:00,28.2,24.8,30.08,ENE,64,0.0,0.0,87,0.00,,,0.00,WeatherDisplay:10.37,2013-03-23 09:39:00,
2013-03-23 04:44:00,27.7,24.6,30.07,ENE,64,0.0,0.0,88,0.00,,,0.00,WeatherDisplay:10.37,2013-03-23 09:44:00,
2013-03-23 04:49:00,27.4,24.6,30.07,ENE,64,0.0,0.0,89,0.00,,,0.00,WeatherDisplay:10.37,2013-03-23 09:49:00,
2013-03-23 04:54:00,27.3,24.5,30.07,ENE,64,0.0,0.0,89,0.00,,,0.00,WeatherDisplay:10.37,2013-03-23 09:54:00,
2013-03-23 04:59:00,26.9,24.1,30.07,ENE,64,0.0,0.0,89,0.00,,,0.00,WeatherDisplay:10.37,2013-03-23 09:59:00,
2013-03-23 05:05:00,26.7,23.9,30.07,ENE,64,0.0,0.0,89,0.00,,,0.00,WeatherDisplay:10.37,2013-03-23 10:05:00,
2013-03-23 05:10:00,26.7,24.2,30.07,ENE,64,0.0,0.0,90,0.00,,,0.00,WeatherDisplay:10.37,2013-03-23 10:10:00,
2013-03-23 05:15:00,26.9,24.4,30.07,ENE,63,0.0,0.0,90,0.00,,,0.00,WeatherDisplay:10.37,2013-03-23 10:15:00,
2013-03-23 05:20:00,26.6,24.1,30.08,ENE,63,0.0,0.0,90,0.00,,,0.00,WeatherDisplay:10.37,2013-03-23 10:20:00,
2013-03-23 05:25:00,26.8,24.5,30.08,NE,51,0.0,0.0,91,0.00,,,0.00,WeatherDisplay:10.37,2013-03-23 10:25:00,
2013-03-23 05:30:00,27.3,24.8,30.08,NE,41,0.6,1.1,90,0.00,,,0.00,WeatherDisplay:10.37,2013-03-23 10:30:00,
2013-03-23 05:35:00,27.6,24.5,30.08,NNE,26,0.0,1.1,88,0.00,,,0.00,WeatherDisplay:10.37,2013-03-23 10:35:00,
2013-03-23 05:40:00,27.7,24.3,30.08,NNE,26,0.0,0.0,87,0.00,,,0.00,WeatherDisplay:10.37,2013-03-23 10:40:00,
2013-03-23 05:45:00,27.8,24.4,30.08,NNE,28,0.0,1.1,87,0.00,,,0.00,WeatherDisplay:10.37,2013-03-23 10:45:00,
2013-03-23 05:50:00,27.9,24.3,30.09,NNE,32,0.2,1.1,86,0.00,,,0.00,WeatherDisplay:10.37,2013-03-23 10:50:00,
2013-03-23 05:55:00,28.0,24.1,30.09,NE,40,0.0,1.1,85,0.00,,,0.00,WeatherDisplay:10.37,2013-03-23 10:55:00,
2013-03-23 06:00:00,27.9,24.0,30.09,NNE,23,0.0,0.0,85,0.00,,,0.00,WeatherDisplay:10.37,2013-03-23 11:00:00,
2013-03-23 06:05:00,27.7,23.8,30.09,NE,41,0.0,0.0,85,0.00,,,0.00,WeatherDisplay:10.37,2013-03-23 11:05:00,
2013-03-23 06:10:00,27.6,23.7,30.09,NE,41,0.0,0.0,85,0.00,,,0.00,WeatherDisplay:10.37,2013-03-23 11:10:00,
2013-03-23 06:15:00,27.4,23.5,30.09,NE,41,0.0,0.0,85,0.00,,,0.00,WeatherDisplay:10.37,2013-03-23 11:15:00,
2013-03-23 06:20:00,27.0,23.1,30.09,NE,41,0.0,0.0,85,0.00,,,0.00,WeatherDisplay:10.37,2013-03-23 11:20:00,
2013-03-23 06:25:00,26.9,23.3,30.09,NE,41,0.0,0.0,86,0.00,,,0.00,WeatherDisplay:10.37,2013-03-23 11:25:00,
2013-03-23 06:30:00,26.7,23.1,30.10,NNE,26,0.0,0.0,86,0.00,CLR,,0.00,WeatherDisplay:10.37,2013-03-23 11:30:00,
2013-03-23 06:35:00,26.8,23.4,30.10,NNE,16,0.0,1.0,87,0.00,CLR,,0.00,WeatherDisplay:10.37,2013-03-23 11:35:00,
2013-03-23 06:40:00,26.9,23.3,30.10,NNE,22,0.0,0.0,86,0.00,CLR,,0.00,WeatherDisplay:10.37,2013-03-23 11:40:00,
2013-03-23 06:45:00,26.8,23.4,30.10,NNE,16,0.0,0.0,87,0.00,CLR,,0.00,WeatherDisplay:10.37,2013-03-23 11:45:00,
2013-03-23 06:50:00,26.6,23.3,30.10,North,11,0.0,0.0,87,0.00,CLR,,0.00,WeatherDisplay:10.37,2013-03-23 11:50:00,
2013-03-23 06:55:00,26.4,23.1,30.10,North,8,0.0,0.0,87,0.00,CLR,,0.00,WeatherDisplay:10.37,2013-03-23 11:55:00,
2013-03-23 07:01:00,26.5,23.4,30.10,North,11,0.0,0.0,88,0.00,CLR,,0.00,WeatherDisplay:10.37,2013-03-23 12:01:00,
2013-03-23 07:06:00,26.5,23.4,30.10,North,7,0.0,0.0,88,0.00,CLR,,0.00,WeatherDisplay:10.37,2013-03-23 12:06:00,
2013-03-23 07:11:00,26.3,23.2,30.11,North,9,0.1,1.1,88,0.00,CLR,,0.00,WeatherDisplay:10.37,2013-03-23 12:11:00,
2013-03-23 07:16:00,26.1,23.0,30.10,NNE,20,0.0,1.1,88,0.00,CLR,,0.00,WeatherDisplay:10.37,2013-03-23 12:16:00,
2013-03-23 07:21:00,26.1,23.0,30.11,North,352,0.0,0.0,88,0.00,CLR,,0.00,WeatherDisplay:10.37,2013-03-23 12:21:00,
2013-03-23 07:26:00,26.1,23.0,30.11,North,352,0.0,0.0,88,0.00,CLR,,0.00,WeatherDisplay:10.37,2013-03-23 12:26:00,
2013-03-23 07:32:00,26.3,23.5,30.11,North,353,0.0,0.0,89,0.00,CLR,,0.00,WeatherDisplay:10.37,2013-03-23 12:32:00,
2013-03-23 07:37:00,26.6,23.8,30.11,North,352,0.0,0.0,89,0.00,CLR,,0.00,WeatherDisplay:10.37,2013-03-23 12:37:00,
2013-03-23 07:42:00,26.9,23.8,30.11,North,352,0.0,0.0,88,0.00,CLR,,0.00,WeatherDisplay:10.37,2013-03-23 12:42:00,
2013-03-23 07:48:00,27.7,24.6,30.11,NNE,20,0.0,0.0,88,0.00,CLR,,0.00,WeatherDisplay:10.37,2013-03-23 12:48:00,
2013-03-23 07:53:00,28.2,24.8,30.12,NNE,20,0.0,0.0,87,0.00,CLR,,0.00,WeatherDisplay:10.37,2013-03-23 12:53:00,
2013-03-23 07:59:00,28.6,24.7,30.12,NNE,22,0.0,0.0,85,0.00,CLR,,0.00,WeatherDisplay:10.37,2013-03-23 12:59:00,
2013-03-23 08:04:00,28.7,24.8,30.12,NE,37,0.0,0.0,85,0.00,CLR,,0.00,WeatherDisplay:10.37,2013-03-23 13:04:00,
2013-03-23 08:09:00,29.2,25.3,30.12,NE,37,0.0,0.0,85,0.00,CLR,,0.00,WeatherDisplay:10.37,2013-03-23 13:09:00,
2013-03-23 08:14:00,29.7,25.5,30.13,NE,37,0.0,0.0,84,0.00,CLR,,0.00,WeatherDisplay:10.37,2013-03-23 13:14:00,
2013-03-23 08:19:00,30.1,25.6,30.13,NE,37,0.0,0.0,83,0.00,CLR,,0.00,WeatherDisplay:10.37,2013-03-23 13:19:00,
2013-03-23 08:24:00,30.3,25.8,30.13,ENE,70,0.0,0.0,83,0.00,CLR,,0.00,WeatherDisplay:10.37,2013-03-23 13:24:00,
2013-03-23 08:29:00,30.4,25.9,30.13,ENE,60,0.9,1.1,83,0.00,CLR,,0.00,WeatherDisplay:10.37,2013-03-23 13:29:00,
2013-03-23 08:34:00,30.5,25.7,30.12,ENE,63,2.5,3.5,82,0.00,CLR,,0.00,WeatherDisplay:10.37,2013-03-23 13:34:00,
2013-03-23 08:40:00,30.8,26.2,30.12,NE,55,1.7,4.0,83,0.00,CLR,,0.00,WeatherDisplay:10.37,2013-03-23 13:40:00,
2013-03-23 08:45:00,31.0,26.1,30.12,ENE,62,5.0,8.0,82,0.00,CLR,,0.00,WeatherDisplay:10.37,2013-03-23 13:45:00,
2013-03-23 08:50:00,31.4,26.5,30.12,NE,51,3.4,4.6,82,0.00,CLR,,0.00,WeatherDisplay:10.37,2013-03-23 13:50:00,
2013-03-23 08:55:00,31.6,26.7,30.11,ENE,65,4.4,6.0,82,0.00,CLR,,0.00,WeatherDisplay:10.37,2013-03-23 13:55:00,
2013-03-23 09:00:00,31.8,26.6,30.11,ENE,60,5.0,9.0,81,0.00,CLR,,0.00,WeatherDisplay:10.37,2013-03-23 14:00:00,
2013-03-23 09:05:00,32.0,26.2,30.12,ENE,61,5.0,9.0,79,0.00,CLR,,0.00,WeatherDisplay:10.37,2013-03-23 14:05:00,
2013-03-23 09:10:00,32.3,26.5,30.12,NE,55,3.5,6.9,79,0.00,CLR,,0.00,WeatherDisplay:10.37,2013-03-23 14:10:00,
2013-03-23 09:15:00,32.6,26.8,30.12,NE,49,5.0,7.0,79,0.00,CLR,,0.00,WeatherDisplay:10.37,2013-03-23 14:15:00,
2013-03-23 09:20:00,32.7,26.0,30.12,ENE,77,3.2,8.1,76,0.00,CLR,,0.00,WeatherDisplay:10.37,2013-03-23 14:20:00,
2013-03-23 09:25:00,33.1,26.4,30.12,ENE,70,2.4,3.5,76,0.00,CLR,,0.00,WeatherDisplay:10.37,2013-03-23 14:25:00,
2013-03-23 09:30:00,33.5,26.4,30.13,ENE,58,3.0,5.0,75,0.00,CLR,,0.00,WeatherDisplay:10.37,2013-03-23 14:30:00,
2013-03-23 09:35:00,34.1,26.0,30.13,ENE,59,4.2,5.8,72,0.00,CLR,,0.00,WeatherDisplay:10.37,2013-03-23 14:35:00,
2013-03-23 09:40:00,34.2,25.8,30.13,NE,43,1.1,2.3,71,0.00,CLR,,0.00,WeatherDisplay:10.37,2013-03-23 14:40:00,
2013-03-23 09:45:00,34.9,26.8,30.13,ENE,61,3.8,5.8,72,0.00,CLR,,0.00,WeatherDisplay:10.37,2013-03-23 14:45:00,
2013-03-23 09:50:00,34.8,24.6,30.13,NE,53,2.9,4.6,66,0.00,CLR,,0.00,WeatherDisplay:10.37,2013-03-23 14:50:00,
2013-03-23 09:55:00,34.9,23.6,30.13,ENE,66,5.0,8.1,63,0.00,CLR,,0.00,WeatherDisplay:10.37,2013-03-23 14:55:00,
2013-03-23 10:00:00,35.1,23.4,30.13,ENE,68,3.8,5.8,62,0.00,CLR,,0.00,WeatherDisplay:10.37,2013-03-23 15:00:00,
2013-03-23 10:05:00,35.2,23.9,30.13,NE,43,0.6,3.5,63,0.00,CLR,,0.00,WeatherDisplay:10.37,2013-03-23 15:05:00,
2013-03-23 10:10:00,35.9,24.1,30.13,NE,55,3.7,5.8,62,0.00,CLR,,0.00,WeatherDisplay:10.37,2013-03-23 15:10:00,
2013-03-23 10:15:00,36.1,24.3,30.13,ENE,68,5.7,6.9,62,0.00,CLR,,0.00,WeatherDisplay:10.37,2013-03-23 15:15:00,
2013-03-23 10:20:00,36.1,24.3,30.13,ENE,58,3.0,4.6,62,0.00,CLR,,0.00,WeatherDisplay:10.37,2013-03-23 15:20:00,
2013-03-23 10:25:00,36.3,23.3,30.13,ENE,59,4.9,8.1,59,0.00,CLR,,0.00,WeatherDisplay:10.37,2013-03-23 15:25:00,
2013-03-23 10:30:00,36.1,23.5,30.12,NE,37,6.9,10.0,60,0.00,CLR,,0.00,WeatherDisplay:10.37,2013-03-23 15:30:00,
2013-03-23 10:35:00,36.3,24.1,30.13,ENE,58,8.0,11.5,61,0.00,CLR,,0.00,WeatherDisplay:10.37,2013-03-23 15:35:00,
2013-03-23 10:40:00,36.1,22.3,30.12,ENE,60,6.4,10.4,57,0.00,CLR,,0.00,WeatherDisplay:10.37,2013-03-23 15:40:00,
2013-03-23 10:45:00,36.3,22.9,30.12,ENE,70,5.7,8.1,58,0.00,CLR,,0.00,WeatherDisplay:10.37,2013-03-23 15:45:00,
2013-03-23 10:50:00,36.8,24.2,30.12,NE,49,6.8,9.2,60,0.00,CLR,,0.00,WeatherDisplay:10.37,2013-03-23 15:50:00,
2013-03-23 10:55:00,36.3,22.5,30.12,NE,49,9.3,11.5,57,0.00,CLR,,0.00,WeatherDisplay:10.37,2013-03-23 15:55:00,
2013-03-23 11:00:00,36.1,22.7,30.12,ENE,65,6.1,10.4,58,0.00,CLR,,0.00,WeatherDisplay:10.37,2013-03-23 16:00:00,
2013-03-23 11:05:00,36.3,22.9,30.12,ENE,68,7.0,10.4,58,0.00,CLR,,0.00,WeatherDisplay:10.37,2013-03-23 16:05:00,
2013-03-23 11:10:00,36.7,22.9,30.12,ENE,58,4.3,7.0,57,0.00,CLR,,0.00,WeatherDisplay:10.37,2013-03-23 16:10:00,
2013-03-23 11:15:00,37.1,23.3,30.12,ENE,58,5.3,8.1,57,0.00,CLR,,0.00,WeatherDisplay:10.37,2013-03-23 16:15:00,
2013-03-23 11:20:00,37.8,23.9,30.12,ESE,113,1.3,6.9,57,0.00,CLR,,0.00,WeatherDisplay:10.37,2013-03-23 16:20:00,
2013-03-23 11:25:00,37.9,23.2,30.12,East,90,4.7,9.2,55,0.00,CLR,,0.00,WeatherDisplay:10.37,2013-03-23 16:25:00,
2013-03-23 11:30:00,37.6,24.1,30.11,ESE,102,4.6,9.2,58,0.00,CLR,,0.00,WeatherDisplay:10.37,2013-03-23 16:30:00,
2013-03-23 11:35:00,37.8,23.1,30.11,NE,52,6.4,12.7,55,0.00,CLR,,0.00,WeatherDisplay:10.37,2013-03-23 16:35:00,
2013-03-23 11:40:00,38.3,22.2,30.11,ESE,114,6.0,10.4,52,0.00,CLR,,0.00,WeatherDisplay:10.37,2013-03-23 16:40:00,
2013-03-23 11:45:00,38.7,23.0,30.11,ENE,70,2.7,8.1,53,0.00,CLR,,0.00,WeatherDisplay:10.37,2013-03-23 16:45:00,
2013-03-23 11:50:00,39.1,22.5,30.11,NE,39,3.4,9.2,51,0.00,CLR,,0.00,WeatherDisplay:10.37,2013-03-23 16:50:00,
2013-03-23 11:55:00,39.2,23.0,30.11,East,82,5.7,11.5,52,0.00,CLR,,0.00,WeatherDisplay:10.37,2013-03-23 16:55:00,
2013-03-23 12:00:00,39.2,24.8,30.11,ESE,103,5.8,11.5,56,0.00,CLR,,0.00,WeatherDisplay:10.37,2013-03-23 17:00:00,
2013-03-23 12:05:00,39.3,23.6,30.11,ESE,107,5.9,9.2,53,0.00,CLR,,0.00,WeatherDisplay:10.37,2013-03-23 17:05:00,
2013-03-23 12:10:00,39.3,24.9,30.11,East,96,8.4,11.5,56,0.00,CLR,,0.00,WeatherDisplay:10.37,2013-03-23 17:10:00,
2013-03-23 12:15:00,39.2,22.1,30.11,ENE,60,7.4,10.4,50,0.00,CLR,,0.00,WeatherDisplay:10.37,2013-03-23 17:15:00,
2013-03-23 12:20:00,39.5,23.8,30.11,SE,129,4.4,7.0,53,0.00,CLR,,0.00,WeatherDisplay:10.37,2013-03-23 17:20:00,
2013-03-23 12:26:00,39.8,24.0,30.11,ENE,68,4.3,10.4,53,0.00,CLR,,0.00,WeatherDisplay:10.37,2013-03-23 17:26:00,
2013-03-23 12:31:00,40.0,24.2,30.11,ENE,59,7.4,11.5,53,0.00,CLR,,0.00,WeatherDisplay:10.37,2013-03-23 17:31:00,
2013-03-23 12:36:00,39.9,23.7,30.11,East,95,2.4,4.6,52,0.00,CLR,,0.00,WeatherDisplay:10.37,2013-03-23 17:36:00,
2013-03-23 12:41:00,39.7,23.5,30.11,ENE,61,2.2,8.1,52,0.00,CLR,,0.00,WeatherDisplay:10.37,2013-03-23 17:41:00,
2013-03-23 12:46:00,40.3,25.0,30.11,ENE,58,3.6,5.0,54,0.00,CLR,,0.00,WeatherDisplay:10.37,2013-03-23 17:46:00,
2013-03-23 12:51:00,40.7,24.4,30.11,NE,49,3.7,8.1,52,0.00,CLR,,0.00,WeatherDisplay:10.37,2013-03-23 17:51:00,
2013-03-23 12:56:00,40.9,24.6,30.11,SE,126,5.7,9.2,52,0.00,CLR,,0.00,WeatherDisplay:10.37,2013-03-23 17:56:00,
2013-03-23 13:01:00,41.0,25.6,30.11,ENE,60,1.9,3.5,54,0.00,CLR,,0.00,WeatherDisplay:10.37,2013-03-23 18:01:00,
2013-03-23 13:07:00,40.3,23.6,30.10,ENE,60,11.9,17.3,51,0.00,CLR,,0.00,WeatherDisplay:10.37,2013-03-23 18:07:00,
2013-03-23 13:12:00,39.9,23.2,30.10,ESE,112,5.4,6.9,51,0.00,CLR,,0.00,WeatherDisplay:10.37,2013-03-23 18:12:00,
2013-03-23 13:17:00,40.4,24.1,30.10,SE,129,5.9,10.4,52,0.00,CLR,,0.00,WeatherDisplay:10.37,2013-03-23 18:17:00,
2013-03-23 13:22:00,40.0,23.8,30.10,ENE,65,6.8,9.2,52,0.00,CLR,,0.00,WeatherDisplay:10.37,2013-03-23 18:22:00,
2013-03-23 13:27:00,40.7,25.3,30.10,ENE,62,11.0,12.7,54,0.00,CLR,,0.00,WeatherDisplay:10.37,2013-03-23 18:27:00,
2013-03-23 13:32:00,40.6,24.3,30.10,ESE,103,4.5,9.0,52,0.00,CLR,,0.00,WeatherDisplay:10.37,2013-03-23 18:32:00,
2013-03-23 13:37:00,41.2,25.8,30.11,ESE,114,1.1,2.3,54,0.00,CLR,,0.00,WeatherDisplay:10.37,2013-03-23 18:37:00,
2013-03-23 13:42:00,42.0,26.1,30.10,ENE,64,6.3,12.0,53,0.00,CLR,,0.00,WeatherDisplay:10.37,2013-03-23 18:42:00,
2013-03-23 13:47:00,41.4,24.6,30.10,ESE,110,3.8,8.1,51,0.00,CLR,,0.00,WeatherDisplay:10.37,2013-03-23 18:47:00,
2013-03-23 13:52:00,41.8,25.4,30.10,ENE,61,8.3,12.7,52,0.00,CLR,,0.00,WeatherDisplay:10.37,2013-03-23 18:52:00,
2013-03-23 13:58:00,41.1,23.9,30.10,NNE,33,6.9,11.5,50,0.00,CLR,,0.00,WeatherDisplay:10.37,2013-03-23 18:58:00,
2013-03-23 14:03:00,40.9,23.2,30.10,NE,45,0.8,6.9,49,0.00,CLR,,0.00,WeatherDisplay:10.37,2013-03-23 19:03:00,
2013-03-23 14:08:00,40.9,23.2,30.10,North,11,0.9,2.3,49,0.00,CLR,,0.00,WeatherDisplay:10.37,2013-03-23 19:08:00,
2013-03-23 14:13:00,41.7,24.9,30.10,East,87,1.5,3.5,51,0.00,CLR,,0.00,WeatherDisplay:10.37,2013-03-23 19:13:00,
2013-03-23 14:18:00,42.4,26.9,30.10,East,94,3.1,4.0,54,0.00,CLR,,0.00,WeatherDisplay:10.37,2013-03-23 19:18:00,
2013-03-23 14:23:00,42.7,25.8,30.09,NE,43,6.4,10.4,51,0.00,CLR,,0.00,WeatherDisplay:10.37,2013-03-23 19:23:00,
2013-03-23 14:28:00,42.6,25.7,30.09,NW,316,3.6,5.8,51,0.00,CLR,,0.00,WeatherDisplay:10.37,2013-03-23 19:28:00,
2013-03-23 14:33:00,42.5,24.7,30.09,NE,51,2.8,4.0,49,0.00,CLR,,0.00,WeatherDisplay:10.37,2013-03-23 19:33:00,
2013-03-23 14:38:00,42.5,26.1,30.08,NE,53,4.3,6.9,52,0.00,CLR,,0.00,WeatherDisplay:10.37,2013-03-23 19:38:00,
2013-03-23 14:43:00,42.7,25.8,30.08,SE,132,7.8,10.0,51,0.00,CLR,,0.00,WeatherDisplay:10.37,2013-03-23 19:43:00,
2013-03-23 14:48:00,42.6,25.7,30.08,ENE,68,2.6,4.0,51,0.00,CLR,,0.00,WeatherDisplay:10.37,2013-03-23 19:48:00,
2013-03-23 14:53:00,42.9,26.5,30.08,NE,47,5.3,6.0,52,0.00,CLR,,0.00,WeatherDisplay:10.37,2013-03-23 19:53:00,
2013-03-23 14:59:00,43.0,25.1,30.08,NE,49,2.8,4.6,49,0.00,CLR,,0.00,WeatherDisplay:10.37,2013-03-23 19:59:00,
2013-03-23 15:04:00,42.4,25.1,30.08,ENE,66,1.9,3.5,50,0.00,CLR,,0.00,WeatherDisplay:10.37,2013-03-23 20:04:00,
2013-03-23 15:10:00,42.7,26.7,30.07,ENE,63,7.6,9.2,53,0.00,CLR,,0.00,WeatherDisplay:10.37,2013-03-23 20:10:00,
2013-03-23 15:15:00,42.9,26.9,30.07,East,101,3.5,5.8,53,0.00,CLR,,0.00,WeatherDisplay:10.37,2013-03-23 20:15:00,
2013-03-23 15:20:00,42.8,25.9,30.07,ESE,119,4.7,10.4,51,0.00,CLR,,0.00,WeatherDisplay:10.37,2013-03-23 20:20:00,
2013-03-23 15:25:00,43.1,28.0,30.06,East,98,3.5,5.8,55,0.00,CLR,,0.00,WeatherDisplay:10.37,2013-03-23 20:25:00,
2013-03-23 15:30:00,43.4,27.4,30.06,SE,141,2.5,4.6,53,0.00,CLR,,0.00,WeatherDisplay:10.37,2013-03-23 20:30:00,
2013-03-23 15:35:00,43.3,27.8,30.05,ENE,71,10.4,12.7,54,0.00,CLR,,0.00,WeatherDisplay:10.37,2013-03-23 20:35:00,
2013-03-23 15:40:00,42.8,26.4,30.05,NE,55,8.8,12.7,52,0.00,CLR,,0.00,WeatherDisplay:10.37,2013-03-23 20:40:00,
2013-03-23 15:45:00,42.6,27.1,30.05,NNE,17,6.9,10.4,54,0.00,CLR,,0.00,WeatherDisplay:10.37,2013-03-23 20:45:00,
2013-03-23 15:50:00,42.7,28.1,30.04,NE,55,11.5,13.8,56,0.00,CLR,,0.00,WeatherDisplay:10.37,2013-03-23 20:50:00,
2013-03-23 15:55:00,42.7,27.6,30.04,ENE,71,6.4,12.0,55,0.00,CLR,,0.00,WeatherDisplay:10.37,2013-03-23 20:55:00,
2013-03-23 16:00:00,42.6,27.5,30.03,East,79,11.8,16.1,55,0.00,CLR,,0.00,WeatherDisplay:10.37,2013-03-23 21:00:00,
2013-03-23 16:05:00,42.3,26.8,30.03,NE,55,9.8,12.7,54,0.00,CLR,,0.00,WeatherDisplay:10.37,2013-03-23 21:05:00,
2013-03-23 16:10:00,42.7,28.9,30.03,ENE,62,2.1,4.6,58,0.00,CLR,,0.00,WeatherDisplay:10.37,2013-03-23 21:10:00,
2013-03-23 16:16:00,41.9,26.9,30.02,ENE,68,10.4,17.3,55,0.00,CLR,,0.00,WeatherDisplay:10.37,2013-03-23 21:16:00,
2013-03-23 16:21:00,42.3,28.1,30.02,NE,53,8.8,11.5,57,0.00,CLR,,0.00,WeatherDisplay:10.37,2013-03-23 21:21:00,
2013-03-23 16:27:00,42.0,27.4,30.02,ENE,58,10.6,15.0,56,0.00,CLR,,0.00,WeatherDisplay:10.37,2013-03-23 21:27:00,
2013-03-23 16:32:00,41.9,27.3,30.02,ENE,64,8.7,11.5,56,0.00,CLR,,0.00,WeatherDisplay:10.37,2013-03-23 21:32:00,
2013-03-23 16:37:00,41.9,27.3,30.02,ENE,60,12.2,15.0,56,0.00,CLR,,0.00,WeatherDisplay:10.37,2013-03-23 21:37:00,
2013-03-23 16:43:00,42.1,27.5,30.02,ENE,58,8.7,12.7,56,0.00,CLR,,0.00,WeatherDisplay:10.37,2013-03-23 21:43:00,
2013-03-23 16:48:00,41.9,26.4,30.02,ENE,74,7.9,10.4,54,0.00,CLR,,0.00,WeatherDisplay:10.37,2013-03-23 21:48:00,
2013-03-23 16:53:00,41.5,26.1,30.02,ENE,68,10.4,15.0,54,0.00,CLR,,0.00,WeatherDisplay:10.37,2013-03-23 21:53:00,
2013-03-23 16:58:00,41.2,26.7,30.01,NE,47,8.1,12.7,56,0.00,CLR,,0.00,WeatherDisplay:10.37,2013-03-23 21:58:00,
2013-03-23 17:03:00,40.8,26.7,30.01,NE,56,9.5,15.0,57,0.00,CLR,,0.00,WeatherDisplay:10.37,2013-03-23 22:03:00,
2013-03-23 17:08:00,40.9,26.4,30.01,ENE,65,9.6,12.7,56,0.00,CLR,,0.00,WeatherDisplay:10.37,2013-03-23 22:08:00,
2013-03-23 17:13:00,40.8,26.7,30.00,NE,55,13.2,16.1,57,0.00,CLR,,0.00,WeatherDisplay:10.37,2013-03-23 22:13:00,
2013-03-23 17:18:00,40.6,26.5,30.00,ENE,71,10.1,15.0,57,0.00,CLR,,0.00,WeatherDisplay:10.37,2013-03-23 22:18:00,
2013-03-23 17:23:00,40.5,26.4,30.00,NE,55,13.4,16.1,57,0.00,CLR,,0.00,WeatherDisplay:10.37,2013-03-23 22:23:00,
2013-03-23 17:28:00,40.2,26.2,30.00,ENE,65,12.4,13.8,57,0.00,CLR,,0.00,WeatherDisplay:10.37,2013-03-23 22:28:00,
2013-03-23 17:33:00,40.1,26.1,30.00,ENE,70,10.4,14.0,57,0.00,CLR,,0.00,WeatherDisplay:10.37,2013-03-23 22:33:00,
2013-03-23 17:38:00,40.0,26.0,30.00,ENE,59,14.3,17.3,57,0.00,CLR,,0.00,WeatherDisplay:10.37,2013-03-23 22:38:00,
2013-03-23 17:43:00,40.0,26.0,30.00,ENE,58,11.4,18.4,57,0.00,CLR,,0.00,WeatherDisplay:10.37,2013-03-23 22:43:00,
2013-03-23 17:48:00,40.2,26.2,30.00,ENE,60,10.4,17.3,57,0.00,CLR,,0.00,WeatherDisplay:10.37,2013-03-23 22:48:00,
2013-03-23 17:53:00,40.3,25.8,30.01,East,86,12.5,16.1,56,0.00,CLR,,0.00,WeatherDisplay:10.37,2013-03-23 22:53:00,
2013-03-23 17:58:00,39.8,26.2,30.01,East,80,6.2,8.1,58,0.00,CLR,,0.00,WeatherDisplay:10.37,2013-03-23 22:58:00,
2013-03-23 18:03:00,39.5,26.3,30.01,ENE,62,7.8,9.2,59,0.00,CLR,,0.00,WeatherDisplay:10.37,2013-03-23 23:03:00,
2013-03-23 18:08:00,39.2,26.1,30.01,ENE,71,7.3,10.4,59,0.00,CLR,,0.00,WeatherDisplay:10.37,2013-03-23 23:08:00,
2013-03-23 18:13:00,39.1,26.0,30.01,ENE,65,9.9,13.8,59,0.00,CLR,,0.00,WeatherDisplay:10.37,2013-03-23 23:13:00,
2013-03-23 18:19:00,38.8,26.5,30.01,ENE,58,7.7,10.0,61,0.00,CLR,,0.00,WeatherDisplay:10.37,2013-03-23 23:19:00,
2013-03-23 18:24:00,38.6,27.1,30.01,ENE,70,5.4,8.1,63,0.00,CLR,,0.00,WeatherDisplay:10.37,2013-03-23 23:24:00,
2013-03-23 18:29:00,38.5,26.6,30.01,ENE,63,7.7,11.5,62,0.00,CLR,,0.00,WeatherDisplay:10.37,2013-03-23 23:29:00,
2013-03-23 18:34:00,38.4,26.5,30.01,ENE,68,9.8,11.5,62,0.00,CLR,,0.00,WeatherDisplay:10.37,2013-03-23 23:34:00,
2013-03-23 18:39:00,38.3,26.8,30.01,ENE,70,7.3,10.4,63,0.00,CLR,,0.00,WeatherDisplay:10.37,2013-03-23 23:39:00,
2013-03-23 18:44:00,38.1,27.0,30.01,ENE,58,6.2,8.1,64,0.00,CLR,,0.00,WeatherDisplay:10.37,2013-03-23 23:44:00,
2013-03-23 18:49:00,37.7,27.4,30.01,NE,41,5.6,8.1,66,0.00,CLR,,0.00,WeatherDisplay:10.37,2013-03-23 23:49:00,
2013-03-23 18:54:00,37.5,26.8,30.01,ENE,68,6.7,9.2,65,0.00,CLR,,0.00,WeatherDisplay:10.37,2013-03-23 23:54:00,
2013-03-23 18:59:00,37.1,26.0,30.02,ENE,58,6.8,9.2,64,0.00,CLR,,0.00,WeatherDisplay:10.37,2013-03-23 23:59:00,
2013-03-23 19:04:00,36.7,25.7,30.02,NE,37,5.9,8.1,64,0.00,CLR,,0.00,WeatherDisplay:10.37,2013-03-24 00:04:00,
2013-03-23 19:09:00,36.5,25.5,30.02,NE,39,8.1,10.0,64,0.00,CLR,,0.00,WeatherDisplay:10.37,2013-03-24 00:09:00,
2013-03-23 19:14:00,36.2,25.6,30.02,NNE,27,6.7,8.1,65,0.00,CLR,,0.00,WeatherDisplay:10.37,2013-03-24 00:14:00,
2013-03-23 19:19:00,35.9,25.6,30.02,NE,51,7.7,9.2,66,0.00,CLR,,0.00,WeatherDisplay:10.37,2013-03-24 00:19:00,
2013-03-23 19:24:00,35.9,25.6,30.03,ENE,59,6.3,11.5,66,0.00,CLR,,0.00,WeatherDisplay:10.37,2013-03-24 00:24:00,
2013-03-23 19:29:00,35.8,25.9,30.02,NE,36,5.9,8.1,67,0.00,CLR,,0.00,WeatherDisplay:10.37,2013-03-24 00:29:00,
2013-03-23 19:34:00,35.7,25.8,30.03,ENE,60,6.7,9.2,67,0.00,CLR,,0.00,WeatherDisplay:10.37,2013-03-24 00:34:00,
2013-03-23 19:39:00,35.5,25.6,30.02,NE,47,9.1,10.4,67,0.00,CLR,,0.00,WeatherDisplay:10.37,2013-03-24 00:39:00,
2013-03-23 19:44:00,35.4,25.9,30.02,ENE,78,9.5,11.5,68,0.00,CLR,,0.00,WeatherDisplay:10.37,2013-03-24 00:44:00,
2013-03-23 19:49:00,35.4,25.5,30.02,ENE,70,8.5,11.5,67,0.00,,,0.00,WeatherDisplay:10.37,2013-03-24 00:49:00,
2013-03-23 19:54:00,35.2,25.7,30.02,NE,41,7.4,9.2,68,0.00,,,0.00,WeatherDisplay:10.37,2013-03-24 00:54:00,
2013-03-23 19:59:00,35.2,25.3,30.03,NE,47,6.2,7.0,67,0.00,,,0.00,WeatherDisplay:10.37,2013-03-24 00:59:00,
2013-03-23 20:04:00,35.2,25.7,30.03,ENE,59,6.3,10.0,68,0.00,,,0.00,WeatherDisplay:10.37,2013-03-24 01:04:00,
2013-03-23 20:09:00,35.1,25.6,30.03,NE,41,5.4,6.9,68,0.00,,,0.00,WeatherDisplay:10.37,2013-03-24 01:09:00,
2013-03-23 20:14:00,35.0,25.5,30.03,NE,43,5.0,5.8,68,0.00,,,0.00,WeatherDisplay:10.37,2013-03-24 01:14:00,
2013-03-23 20:19:00,34.9,25.8,30.03,NE,41,6.6,7.0,69,0.00,,,0.00,WeatherDisplay:10.37,2013-03-24 01:19:00,
2013-03-23 20:25:00,34.7,25.6,30.03,NE,39,6.3,6.3,69,0.00,,,0.00,WeatherDisplay:10.37,2013-03-24 01:25:00,
2013-03-23 20:30:00,34.6,25.8,30.03,North,360,5.8,7.0,70,0.00,,,0.00,WeatherDisplay:10.37,2013-03-24 01:30:00,
2013-03-23 20:35:00,34.5,25.7,30.03,NE,44,7.0,9.2,70,0.00,,,0.00,WeatherDisplay:10.37,2013-03-24 01:35:00,
2013-03-23 20:40:00,34.5,25.7,30.03,NE,43,7.0,10.0,70,0.00,,,0.00,WeatherDisplay:10.37,2013-03-24 01:40:00,
2013-03-23 20:45:00,34.5,25.7,30.03,NE,42,7.0,12.0,70,0.00,,,0.00,WeatherDisplay:10.37,2013-03-24 01:45:00,
2013-03-23 20:50:00,34.5,25.7,30.04,NE,46,5.0,9.0,70,0.00,,,0.00,WeatherDisplay:10.37,2013-03-24 01:50:00,
2013-03-23 20:55:00,34.5,25.7,30.04,NE,46,3.8,6.9,70,0.00,,,0.00,WeatherDisplay:10.37,2013-03-24 01:55:00,
2013-03-23 21:00:00,34.5,25.7,30.05,NE,42,3.0,6.0,70,0.00,,,0.00,WeatherDisplay:10.37,2013-03-24 02:00:00,
2013-03-23 21:05:00,34.6,25.8,30.05,ENE,57,2.8,4.6,70,0.00,,,0.00,WeatherDisplay:10.37,2013-03-24 02:05:00,
2013-03-23 21:10:00,34.6,25.8,30.04,NNE,29,4.5,8.1,70,0.00,,,0.00,WeatherDisplay:10.37,2013-03-24 02:10:00,
2013-03-23 21:15:00,34.6,25.8,30.04,NE,49,4.1,6.9,70,0.00,,,0.00,WeatherDisplay:10.37,2013-03-24 02:15:00,
2013-03-23 21:20:00,34.6,25.8,30.04,North,356,6.0,9.2,70,0.00,,,0.00,WeatherDisplay:10.37,2013-03-24 02:20:00,
2013-03-23 21:25:00,34.5,25.7,30.03,NE,44,5.3,7.0,70,0.00,,,0.00,WeatherDisplay:10.37,2013-03-24 02:25:00,
2013-03-23 21:30:00,34.5,26.1,30.03,NE,43,5.5,6.9,71,0.00,,,0.00,WeatherDisplay:10.37,2013-03-24 02:30:00,
2013-03-23 21:35:00,34.4,26.0,30.03,NE,36,5.5,6.9,71,0.00,,,0.00,WeatherDisplay:10.37,2013-03-24 02:35:00,
2013-03-23 21:40:00,34.3,25.9,30.04,NE,43,4.9,8.1,71,0.00,,,0.00,WeatherDisplay:10.37,2013-03-24 02:40:00,
2013-03-23 21:45:00,34.3,25.9,30.03,NNE,29,5.9,8.1,71,0.00,,,0.00,WeatherDisplay:10.37,2013-03-24 02:45:00,
2013-03-23 21:50:00,34.3,25.9,30.03,NE,40,5.4,8.1,71,0.00,,,0.00,WeatherDisplay:10.37,2013-03-24 02:50:00,
2013-03-23 21:55:00,34.2,25.8,30.03,NNW,335,4.7,6.9,71,0.00,,,0.00,WeatherDisplay:10.37,2013-03-24 02:55:00,
2013-03-23 22:00:00,34.2,25.8,30.03,NE,51,5.3,5.8,71,0.00,,,0.00,WeatherDisplay:10.37,2013-03-24 03:00:00,
2013-03-23 22:05:00,34.2,25.8,30.03,NE,49,4.6,6.0,71,0.00,,,0.00,WeatherDisplay:10.37,2013-03-24 03:05:00,
2013-03-23 22:10:00,34.1,25.7,30.03,NE,41,5.4,8.1,71,0.00,,,0.00,WeatherDisplay:10.37,2013-03-24 03:10:00,
2013-03-23 22:15:00,34.1,25.7,30.03,NE,46,4.8,8.1,71,0.00,,,0.00,WeatherDisplay:10.37,2013-03-24 03:15:00,
2013-03-23 22:20:00,34.0,25.9,30.03,NNE,22,5.1,6.9,72,0.00,,,0.00,WeatherDisplay:10.37,2013-03-24 03:20:00,
2013-03-23 22:25:00,34.0,25.9,30.03,NE,44,6.9,8.1,72,0.00,,,0.00,WeatherDisplay:10.37,2013-03-24 03:25:00,
2013-03-23 22:30:00,33.9,26.2,30.03,NE,53,5.9,7.0,73,0.00,,,0.00,WeatherDisplay:10.37,2013-03-24 03:30:00,
2013-03-23 22:35:00,33.9,26.2,30.03,NE,40,4.9,8.1,73,0.00,,,0.00,WeatherDisplay:10.37,2013-03-24 03:35:00,
2013-03-23 22:40:00,33.8,26.4,30.03,ENE,62,5.0,6.9,74,0.00,,,0.00,WeatherDisplay:10.37,2013-03-24 03:40:00,
2013-03-23 22:45:00,33.8,26.4,30.03,NE,55,5.7,11.5,74,0.00,,,0.00,WeatherDisplay:10.37,2013-03-24 03:45:00,
2013-03-23 22:50:00,33.8,26.4,30.03,NE,46,4.5,6.9,74,0.00,,,0.00,WeatherDisplay:10.37,2013-03-24 03:50:00,
2013-03-23 22:55:00,33.9,26.5,30.03,NNE,30,4.5,9.2,74,0.00,,,0.00,WeatherDisplay:10.37,2013-03-24 03:55:00,
2013-03-23 23:00:00,33.7,26.3,30.04,NE,50,5.0,10.0,74,0.00,,,0.00,WeatherDisplay:10.37,2013-03-24 04:00:00,
2013-03-23 23:01:00,33.8,26.4,30.04,NE,49,5.7,9.2,74,0.00,,,0.00,WeatherDisplay:10.37,2013-03-24 04:01:00,
2013-03-23 23:06:00,33.7,26.3,30.04,NE,48,4.6,8.1,74,0.00,,,0.00,WeatherDisplay:10.37,2013-03-24 04:06:00,
2013-03-23 23:11:00,33.7,26.6,30.04,NE,46,4.0,8.0,75,0.00,,,0.00,WeatherDisplay:10.37,2013-03-24 04:11:00,
2013-03-23 23:17:00,33.7,26.6,30.04,NE,52,4.2,6.0,75,0.00,,,0.00,WeatherDisplay:10.37,2013-03-24 04:17:00,
2013-03-23 23:22:00,33.7,26.6,30.04,NE,44,4.3,8.1,75,0.00,,,0.00,WeatherDisplay:10.37,2013-03-24 04:22:00,
2013-03-23 23:27:00,33.6,26.8,30.05,ENE,64,4.7,5.8,76,0.00,,,0.00,WeatherDisplay:10.37,2013-03-24 04:27:00,
2013-03-23 23:32:00,33.6,26.8,30.04,NE,40,3.5,6.0,76,0.00,,,0.00,WeatherDisplay:10.37,2013-03-24 04:32:00,
2013-03-23 23:37:00,33.5,27.1,30.04,NE,47,5.3,9.2,77,0.00,,,0.00,WeatherDisplay:10.37,2013-03-24 04:37:00,
2013-03-23 23:42:00,33.5,27.1,30.04,ENE,61,5.5,8.1,77,0.00,,,0.00,WeatherDisplay:10.37,2013-03-24 04:42:00,
2013-03-23 23:47:00,33.5,27.1,30.04,NE,40,4.4,6.9,77,0.00,,,0.00,WeatherDisplay:10.37,2013-03-24 04:47:00,
2013-03-23 23:52:00,33.4,27.3,30.04,ENE,64,4.7,6.9,78,0.00,,,0.00,WeatherDisplay:10.37,2013-03-24 04:52:00,
2013-03-23 23:57:00,33.3,27.2,30.03,ENE,74,4.5,10.4,78,0.00,,,0.00,WeatherDisplay:10.37,2013-03-24 04:57:00,